EHI
0 0 0 0 0 0 0 0 0 0 1 4 9 15 22 27 27 26 28 31 33 34 36 40 41 41 41 41 41 42 41 39 37 31 24 19 15 13 12 11 10 11 12 12
0 0 0 0 0 0 0 0 0 0 1 5 10 17 24 28 28 27 28 32 33 33 36 40 41 41 42 42 42 41 40 38 35 31 25 21 18 14 11 10 11 11 11 11
0 0 0 0 0 0 1 1 0 1 3 8 12 17 24 27 28 27 29 32 32 31 34 37 37 39 41 41 39 37 34 32 31 29 26 23 19 15 12 10 11 12 11 10
0 0 0 0 0 0 1 2 2 3 6 10 14 18 22 26 27 27 28 30 29 28 29 30 30 34 38 38 34 30 26 24 24 24 23 21 18 16 14 13 13 13 12 11
0 0 0 0 0 0 2 4 5 6 8 12 18 21 21 23 26 26 26 26 27 26 27 28 29 31 34 34 31 26 23 21 20 19 18 17 17 17 16 16 15 14 13 12
0 0 0 0 0 1 3 5 6 6 8 13 17 18 17 18 22 25 26 26 26 26 27 29 30 31 32 31 28 25 23 21 20 18 16 15 16 18 18 17 16 15 14 14
0 0 0 0 0 1 2 3 4 5 7 10 11 11 12 14 18 23 26 26 26 27 28 28 29 30 31 29 25 23 21 20 20 18 16 14 16 19 21 20 18 16 15 14
0 0 0 1 1 1 1 3 4 5 8 9 9 8 10 14 17 21 24 26 28 30 29 27 26 28 29 27 24 22 20 19 18 18 16 15 18 21 23 23 21 19 17 16
1 1 1 1 1 1 3 5 6 6 8 10 10 9 11 16 19 20 22 26 29 32 30 26 23 24 25 24 24 23 21 18 17 16 15 17 21 22 23 23 22 21 21 20
2 2 2 2 2 3 6 8 7 6 8 11 12 12 15 19 21 22 23 26 30 32 30 26 22 21 21 22 23 23 21 19 16 15 15 18 20 21 20 21 21 22 22 22
3 3 4 4 4 6 8 8 7 7 9 12 14 16 18 20 22 22 23 27 31 32 29 25 22 20 20 21 22 22 21 18 16 15 14 14 15 14 13 14 16 17 19 21
3 4 4 5 8 10 9 7 6 7 9 12 15 18 19 21 22 22 23 27 29 29 28 25 22 20 20 20 21 21 21 18 15 13 12 10 9 8 7 7 8 8 11 14
4 4 5 7 11 12 8 5 5 6 7 10 14 17 19 21 23 22 22 24 26 26 26 24 20 19 19 19 20 20 19 17 15 12 10 9 8 7 5 4 2 2 4 5
4 5 6 9 12 12 8 5 4 5 6 8 11 14 16 20 22 21 19 19 21 23 22 19 17 17 18 19 20 18 17 16 14 11 8 7 7 7 5 4 3 1 0 1
5 6 8 10 12 11 8 5 4 5 6 7 9 11 14 17 19 18 15 14 16 17 15 13 13 14 16 17 18 16 14 12 12 10 8 6 5 5 5 5 5 3 1 0
6 6 8 10 12 10 8 5 4 5 6 7 8 9 10 14 16 15 13 12 13 13 11 10 10 11 13 14 14 13 11 9 9 9 8 7 6 5 5 6 6 5 2 1
6 6 6 8 10 9 7 5 4 5 6 7 8 7 7 9 12 12 10 9 10 11 10 9 9 10 11 12 11 10 9 8 8 8 8 8 8 7 6 6 5 4 3 1
4 4 4 4 5 6 6 5 4 4 5 6 6 6 4 5 8 8 7 7 8 9 9 9 9 10 10 10 9 9 9 8 8 9 9 8 8 7 6 5 4 3 3 2
3 3 2 2 2 2 3 3 3 3 4 4 4 3 3 4 5 6 6 6 6 6 7 8 9 9 8 8 7 8 9 9 9 10 9 8 6 5 5 4 3 3 3 3
3 3 3 3 2 2 3 3 3 3 4 3 3 2 2 3 4 4 4 4 4 4 5 6 7 7 7 7 6 7 8 9 10 10 9 7 5 4 4 4 4 3 3 3
3 4 5 5 4 4 5 5 4 4 4 3 2 2 2 3 3 3 3 3 3 2 2 2 4 5 5 6 6 7 7 8 8 8 6 4 3 2 2 3 4 4 3 2
3 4 5 5 4 5 6 6 5 5 5 4 2 2 3 3 3 3 3 2 1 1 0 0 1 2 3 4 5 6 6 6 5 4 3 1 1 1 1 2 3 3 3 3
3 3 4 4 4 4 6 6 5 6 6 5 3 3 3 3 3 2 1 1 0 0 0 0 0 0 1 1 3 3 3 3 2 1 1 0 0 0 0 1 2 3 3 3
3 2 1 2 2 4 5 5 4 4 5 4 3 2 2 2 1 1 0 0 0 0 0 0 0 0 0 0 1 1 1 2 1 0 0 0 0 0 0 1 3 3 3 3
2 1 0 0 2 3 4 3 3 3 3 2 1 1 1 1 0 0 0 0 0 0 0 0 0 0 0 0 0 0 1 1 1 0 0 0 0 0 1 2 3 3 3 3
1 0 0 1 2 3 3 3 3 3 2 1 0 0 0 0 0 0 0 0 0 0 0 0 0 0 0 0 0 0 0 0 0 0 0 0 0 0 1 2 3 3 3 3
0 0 1 2 3 3 3 3 3 2 1 0 0 0 0 0 0 0 0 0 0 0 0 0 0 0 0 0 0 0 0 0 0 0 0 0 0 0 1 2 3 3 3 2
Wind_Speed
4 4 2 2 4 3 4 7 7 7 7 7 7 8 7 7 7 8 8 8 9 9 8 7 7 7 7 6 7 8 7 6 6 5 4 4 4 3 3 2 3 2 2 1
2 2 1 2 3 2 3 4 4 3 4 5 3 4 5 6 8 8 8 8 9 8 8 8 8 8 7 6 6 7 7 6 5 4 4 4 4 3 3 2 2 2 2 1
2 3 3 4 3 3 2 3 5 5 5 2 3 4 7 7 7 7 7 7 8 8 8 9 9 8 8 7 6 7 6 6 5 5 4 4 4 3 3 3 2 2 2 2
1 2 5 8 4 3 3 1 2 3 3 4 5 5 6 7 8 8 7 7 6 6 6 6 6 6 7 7 7 7 6 5 5 5 5 4 3 3 3 3 3 3 3 3
3 2 5 5 3 1 3 1 2 4 2 2 3 5 3 1 5 7 8 7 6 5 5 6 7 7 7 6 7 7 7 6 6 6 5 4 4 4 4 3 3 3 3 3
3 3 5 6 5 3 5 1 2 3 3 2 4 3 2 2 2 3 4 5 5 4 4 5 6 8 8 7 7 7 7 7 6 5 5 5 5 4 3 3 3 3 2 2
3 3 6 6 5 4 3 6 4 1 2 3 2 4 4 2 2 3 4 5 6 5 5 4 5 8 8 6 7 7 6 5 5 5 5 5 4 3 3 3 3 3 2 2
3 3 7 5 3 2 5 3 1 1 1 2 2 2 2 2 2 2 3 4 6 5 4 3 5 7 7 6 6 5 5 5 5 5 5 5 4 4 4 4 4 3 2 2
6 7 5 1 2 2 2 1 1 1 1 2 2 2 2 1 2 2 2 4 4 5 4 3 4 6 6 5 5 6 5 5 5 4 4 4 5 5 4 4 3 3 3 2
0 2 2 2 2 2 1 1 0 1 2 2 1 2 2 2 1 1 1 3 4 5 5 4 3 3 4 4 5 6 6 5 4 4 4 3 3 4 4 4 4 3 3 3
1 3 3 3 2 2 2 3 2 2 1 2 2 2 2 2 1 0 0 1 3 4 5 4 4 3 3 4 5 6 5 5 4 4 4 3 3 2 4 4 5 6 5 5
5 5 3 4 3 1 2 2 1 2 3 1 2 2 2 2 1 1 0 1 2 3 4 4 4 4 3 4 5 6 5 4 4 4 4 3 3 1 1 2 4 5 6 6
5 3 3 4 2 1 1 2 2 1 1 1 1 2 2 2 2 1 1 1 2 2 3 3 4 4 3 4 5 6 5 5 4 4 4 4 3 4 2 1 1 2 5 6
2 1 2 3 2 2 2 3 2 1 1 0 1 1 2 1 1 2 1 2 2 2 2 3 3 4 4 4 5 5 4 5 5 4 4 4 4 4 4 3 2 2 3 5
3 3 4 3 1 2 2 2 2 1 1 2 1 0 1 1 2 2 2 1 1 1 2 2 3 4 3 4 5 5 4 4 4 3 3 3 3 3 3 4 3 2 1 1
5 4 3 2 2 1 1 2 2 3 2 1 1 1 1 1 1 2 2 2 2 2 3 3 4 4 4 4 4 4 3 5 4 3 3 3 3 3 3 4 4 3 4 3
3 4 3 3 3 4 4 4 4 5 4 3 3 2 1 1 1 1 1 1 2 2 3 3 3 3 3 4 4 3 3 4 5 4 3 4 4 4 4 4 4 4 4 5
4 5 5 5 5 4 4 4 3 3 4 4 3 2 2 3 2 2 1 0 1 1 1 1 2 2 3 3 3 3 3 3 3 3 3 3 3 3 4 4 4 4 3 3
3 3 3 2 3 3 3 3 2 2 2 3 2 2 2 2 3 2 1 2 1 1 2 1 2 2 2 2 2 2 3 3 3 3 3 3 3 3 4 4 4 4 4 3
3 2 2 2 1 2 2 2 2 2 2 3 2 1 1 1 1 1 1 1 2 2 1 1 1 2 2 2 2 2 2 2 2 3 3 3 3 3 3 4 4 3 3 3
2 2 2 1 0 1 2 3 3 2 2 2 3 3 2 1 1 2 1 0 2 0 1 1 1 1 1 1 1 2 2 2 2 2 3 3 3 3 3 3 3 3 3 3
2 1 1 0 1 1 0 2 2 2 1 1 2 2 2 1 1 1 1 2 2 1 1 1 1 2 2 2 1 2 2 2 2 2 2 3 3 3 3 3 3 3 3 3
2 2 1 1 1 1 1 2 2 1 1 1 2 2 2 2 1 1 1 1 1 2 1 1 2 3 2 1 2 2 2 2 2 2 2 2 2 3 3 3 3 3 3 3
2 3 1 1 2 3 2 1 0 1 1 1 1 2 2 1 1 1 2 2 3 2 1 2 2 2 2 1 1 1 1 1 1 1 1 2 2 2 2 3 3 2 2 3
1 1 2 2 2 1 1 0 1 1 1 0 1 1 1 2 2 1 1 1 3 2 1 1 2 1 1 1 1 1 1 1 1 1 1 1 1 1 2 2 2 2 2 2
1 0 0 0 0 0 0 1 1 0 0 1 1 1 0 0 1 0 0 1 2 2 1 1 1 1 1 1 1 1 1 1 1 1 1 1 1 1 1 2 2 2 2 2
1 1 1 2 1 1 0 1 1 1 1 1 0 1 1 1 0 0 0 1 1 1 1 1 1 1 1 1 1 1 1 1 1 1 1 1 1 1 1 2 1 1 2 2
Wind_Direction
213 228 224 232 255 228 179 181 181 216 203 217 208 186 176 161 146 145 153 159 167 172 174 170 166 167 168 171 168 168 168 175 183 180 171 164 171 175 168 163 176 175 158 167
324 313 317 294 280 241 206 187 192 193 231 234 202 152 144 149 145 149 159 167 172 171 168 168 170 169 163 163 162 156 161 171 171 160 168 175 178 174 168 169 167 148 153 165
286 313 19 279 240 212 214 200 179 198 223 176 117 153 172 168 158 159 161 163 167 171 175 178 177 168 168 166 155 152 156 159 157 162 172 183 178 170 179 187 172 164 177 173
134 59 226 241 247 191 167 170 143 158 172 157 171 182 175 166 163 167 166 165 167 172 173 175 167 163 163 155 154 158 161 162 162 166 172 172 169 183 194 190 183 188 190 194
122 187 271 293 308 95 133 307 8 118 119 111 102 72 34 174 163 167 167 166 166 172 172 166 163 161 151 157 160 162 168 174 175 169 172 175 185 196 197 187 193 197 192 193
135 168 226 254 297 313 110 265 319 102 126 123 83 85 262 262 157 151 153 147 142 141 138 157 167 159 159 167 169 178 181 180 177 172 174 183 193 198 197 189 196 190 195 202
175 211 252 266 302 27 119 232 280 155 156 146 145 192 218 209 148 157 153 144 136 135 145 172 167 154 159 169 185 188 175 167 170 178 184 183 188 199 183 179 177 181 192 204
157 193 251 305 24 109 218 239 241 86 125 105 118 121 111 113 100 115 142 138 139 141 151 156 154 152 162 183 187 168 161 164 176 185 189 178 178 192 184 176 175 185 187 205
184 209 233 273 155 205 151 104 3 43 83 100 100 100 102 116 113 111 155 155 151 149 144 146 156 158 173 196 169 155 157 170 180 184 186 183 183 187 184 181 183 192 191 207
177 262 283 340 21 9 36 99 67 109 118 107 159 158 128 132 112 92 143 159 157 149 150 165 169 162 177 170 160 158 168 177 177 177 185 187 188 187 186 191 193 195 197 207
239 272 329 335 352 340 349 23 41 27 37 151 147 161 151 150 136 73 205 165 155 158 164 174 165 153 162 163 159 166 172 177 179 182 182 183 188 196 197 204 200 195 201 196
229 232 208 254 272 336 16 343 349 5 343 306 175 176 156 158 166 164 218 165 154 165 165 168 164 162 168 166 165 168 171 176 179 177 177 174 168 161 352 217 213 207 204 193
225 241 228 254 280 34 24 312 309 274 269 292 255 148 146 165 173 160 169 156 156 179 175 173 171 174 186 177 169 172 175 179 179 175 176 178 177 177 193 309 343 228 212 201
246 278 294 279 268 304 311 310 318 357 11 15 199 147 135 150 159 165 196 206 183 166 171 182 184 187 190 176 171 176 181 185 177 177 177 182 189 192 188 187 210 266 254 221
287 250 236 240 263 307 303 309 325 316 334 353 3 63 138 167 199 221 207 179 138 140 167 190 193 200 190 171 171 176 177 183 181 176 178 184 188 192 196 196 201 212 217 236
279 270 235 204 206 240 277 281 265 252 230 212 205 273 240 199 231 225 188 152 153 184 196 198 210 210 189 179 181 182 185 190 180 180 183 184 186 191 196 196 197 198 204 200
261 258 233 219 216 223 226 230 238 238 235 220 212 217 203 113 68 259 213 157 177 203 195 189 216 216 194 188 186 189 192 197 195 187 196 199 194 197 198 194 194 201 214 208
231 243 232 208 207 215 229 230 223 191 198 209 197 174 161 151 167 217 254 88 66 358 287 208 223 215 204 191 185 184 188 195 198 199 203 202 200 196 194 198 200 204 214 209
289 283 282 257 219 195 203 217 211 172 170 170 165 178 188 197 187 184 188 157 159 232 277 291 241 233 236 215 187 182 187 193 196 199 198 202 203 201 199 201 205 205 201 194
300 310 320 293 210 160 179 194 173 157 159 151 151 178 210 211 175 169 164 183 203 206 210 213 217 238 242 224 185 164 170 182 186 190 190 197 204 210 209 206 206 204 202 201
309 325 326 294 266 165 174 178 152 143 137 139 162 191 197 189 160 156 149 212 282 221 153 178 211 248 240 224 195 170 169 184 193 190 193 199 207 210 209 208 208 208 207 206
323 325 322 82 97 57 131 138 137 143 140 129 149 156 141 138 132 127 179 204 208 154 143 183 213 237 238 219 200 190 197 202 202 198 200 203 204 209 210 206 209 213 211 213
356 10 20 88 97 56 37 78 110 121 131 143 145 152 159 175 166 150 260 261 194 166 171 218 209 210 225 223 209 201 208 211 211 205 208 210 208 206 203 202 206 208 207 206
10 13 9 40 77 70 53 18 119 156 150 170 183 181 169 165 261 241 214 209 200 186 198 233 226 206 185 177 259 223 196 201 206 200 202 210 213 212 205 194 194 201 198 193
8 5 11 31 60 101 191 144 72 76 106 144 226 224 203 185 189 224 223 200 199 197 229 257 254 238 212 196 199 199 193 197 192 196 213 218 215 204 198 190 190 193 194 194
319 295 306 1 297 244 219 77 80 0 55 57 351 334 5 126 138 150 214 219 203 194 207 234 244 240 241 232 221 206 195 190 177 180 189 204 196 185 188 188 190 193 181 176
355 28 48 38 19 15 55 83 75 29 38 80 354 322 346 8 64 117 279 289 254 220 220 214 195 201 220 231 235 235 220 204 180 166 168 173 177 190 193 175 165 160 151 149